KF7IOR Weather Reports


Display with metric or nautical units.
time (UTC)temp
F
wind
direction
speed
MPH
gust
MPH
rain 1hr
in
rain 24hr
in
rain mn
in
humidity
%
barometer
mb
20260505125035 55 200 0.0 2.0 0.00 0.00 0.00 81 1014.7
20260505124551 55 146 1.0 2.0 0.00 0.00 0.00 81 1014.7
20260505124034 55 190 1.0 3.0 0.00 0.00 0.00 81 1014.7
20260505123535 55 175 1.0 3.0 0.00 0.00 0.00 81 1014.7
20260505123057 55 0 1.0 3.0 0.00 0.00 0.00 80 1014.7
20260505122536 55 178 0.0 3.0 0.00 0.00 0.00 80 1014.6
20260505122036 55 0 0.0 2.0 0.00 0.00 0.00 80 1014.7
20260505121618 55 229 0.0 2.0 0.00 0.00 0.00 80 1014.7
20260505121036 55 139 1.0 2.0 0.00 0.00 0.00 80 1014.6
20260505120535 55 177 0.0 3.0 0.00 0.00 0.00 80 1014.6
20260505120047 55 215 1.0 3.0 0.00 0.00 0.00 80 1014.6
20260505115535 55 153 0.0 2.0 0.00 0.00 0.00 80 1014.6
20260505115039 55 155 0.0 2.0 0.00 0.00 0.00 80 1014.6
20260505114544 55 128 0.0 2.0 0.00 0.00 0.00 80 1014.6
20260505114036 55 0 0.0 3.0 0.00 0.00 0.00 80 1014.5
20260505113535 55 108 1.0 3.0 0.00 0.00 0.00 80 1014.6
20260505113046 55 159 0.0 4.0 0.00 0.00 0.00 80 1014.6
20260505112537 55 186 1.0 4.0 0.00 0.00 0.00 80 1014.6
20260505112036 55 146 0.0 2.0 0.00 0.00 0.00 80 1014.5
20260505111550 55 149 1.0 2.0 0.00 0.00 0.00 80 1014.6
20260505111038 55 196 0.0 2.0 0.00 0.00 0.00 79 1014.5
20260505110539 55 0 0.0 2.0 0.00 0.00 0.00 79 1014.5
20260505102036 56 112 1.0 2.0 0.00 0.00 0.00 79 1014.1
20260505101547 56 0 0.0 2.0 0.00 0.00 0.00 79 1014.1
20260505101036 56 111 0.0 2.0 0.00 0.00 0.00 80 1014.1
20260505100536 56 119 0.0 2.0 0.00 0.00 0.00 81 1014.1
20260505100123 56 120 0.0 2.0 0.00 0.00 0.00 81 1014.1
20260505095539 56 0 0.0 2.0 0.00 0.00 0.00 81 1014.1
20260505095039 56 0 0.0 2.0 0.00 0.00 0.00 81 1014.2
20260505094545 56 113 0.0 3.0 0.00 0.00 0.00 80 1014.1
20260505094036 56 0 0.0 3.0 0.00 0.00 0.00 80 1014.1
20260505093535 56 98 0.0 2.0 0.00 0.00 0.00 80 1014.1
20260505093044 56 0 0.0 2.0 0.00 0.00 0.00 80 1013.9
20260505092536 56 0 0.0 2.0 0.00 0.00 0.00 80 1013.9
20260505092035 56 0 0.0 3.0 0.00 0.00 0.00 80 1013.8
20260505091611 56 0 1.0 3.0 0.00 0.00 0.00 80 1013.8
20260505091034 56 5 1.0 2.0 0.00 0.00 0.00 80 1013.8
20260505090534 56 9 1.0 2.0 0.00 0.00 0.00 80 1013.7
20260505090058 57 9 0.0 2.0 0.00 0.00 0.00 80 1013.6
20260505085536 57 96 0.0 2.0 0.00 0.00 0.00 80 1013.6
20260505085036 57 0 0.0 2.0 0.00 0.00 0.00 80 1013.6
20260505084548 56 107 0.0 2.0 0.00 0.00 0.00 81 1013.6
20260505084039 56 0 0.0 2.0 0.00 0.00 0.00 80 1013.8
20260505083535 56 0 0.0 3.0 0.00 0.00 0.00 80 1013.7
20260505083051 56 331 0.0 3.0 0.00 0.00 0.00 80 1013.7
20260505082535 56 44 1.0 3.0 0.00 0.00 0.00 80 1013.6
20260505082035 56 0 1.0 3.0 0.00 0.00 0.00 81 1013.6
20260505081546 56 37 0.0 2.0 0.00 0.00 0.00 80 1013.6
20260505081037 56 352 0.0 3.0 0.00 0.00 0.00 80 1013.5
20260505080536 56 319 1.0 3.0 0.00 0.00 0.00 80 1013.6
20260505080048 57 336 0.0 2.0 0.00 0.00 0.00 80 1013.4
20260505075537 57 0 1.0 3.0 0.00 0.00 0.00 80 1013.4
20260505075036 57 9 0.0 5.0 0.00 0.00 0.00 80 1013.3
20260505074542 57 292 1.0 5.0 0.00 0.00 0.00 79 1013.4
20260505074039 57 344 1.0 4.0 0.00 0.00 0.00 79 1013.3
20260505073536 57 329 1.0 2.0 0.00 0.00 0.00 79 1013.2
20260505073057 57 40 1.0 2.0 0.00 0.00 0.00 79 1013.1
20260505072535 57 0 0.0 3.0 0.00 0.00 0.00 80 1013.1
20260505072035 58 0 0.0 3.0 0.00 0.00 0.00 79 1012.9
20260505071547 58 352 1.0 3.0 0.00 0.00 0.00 79 1012.9
20260505071035 58 0 0.0 3.0 0.00 0.00 0.00 78 1012.9
20260505070535 58 339 1.0 3.0 0.00 0.00 0.00 79 1012.9
20260505070041 58 0 0.0 2.0 0.00 0.00 0.00 79 1012.9
20260505065536 58 0 0.0 2.0 0.00 0.00 0.00 78 1012.8
20260505065034 58 324 0.0 2.0 0.00 0.00 0.00 78 1012.8
20260505064540 58 0 0.0 2.0 0.00 0.00 0.00 78 1012.7
20260505064037 58 313 0.0 2.0 0.00 0.00 0.00 77 1012.6
20260505063535 59 360 0.0 2.0 0.00 0.00 0.00 77 1012.5
20260505063050 59 0 0.0 2.0 0.00 0.00 0.00 77 1012.4
20260505062535 59 0 0.0 2.0 0.00 0.00 0.00 77 1012.3
20260505062036 59 313 0.0 2.0 0.00 0.00 0.00 76 1012.2
20260505061548 59 19 0.0 2.0 0.00 0.00 0.00 76 1012.2
20260505061036 59 0 0.0 2.0 0.00 0.00 0.00 75 1012.0
20260505060539 60 0 0.0 2.0 0.00 0.00 0.00 75 1012.0
20260505060050 60 0 0.0 3.0 0.00 0.00 0.00 74 1012.0
20260505055535 60 341 0.0 3.0 0.00 0.00 0.00 74 1012.0
20260505055035 60 288 0.0 2.0 0.00 0.00 0.00 74 1012.0
20260505054616 61 260 0.0 2.0 0.00 0.00 0.00 73 1012.0
20260505054037 61 304 1.0 2.0 0.00 0.00 0.00 73 1011.9
20260505053535 61 0 0.0 2.0 0.00 0.00 0.00 72 1011.8
20260505053052 61 274 0.0 3.0 0.00 0.00 0.00 72 1011.7
20260505052538 62 347 1.0 3.0 0.00 0.00 0.00 71 1011.7
20260505052037 62 334 1.0 4.0 0.00 0.00 0.00 71 1011.7
20260505051549 63 360 1.0 4.0 0.00 0.00 0.00 70 1011.6
20260505051036 63 38 0.0 3.0 0.00 0.00 0.00 69 1011.6
20260505050537 63 9 1.0 3.0 0.00 0.00 0.00 69 1011.5
20260505041549 67 346 1.0 4.0 0.00 0.00 0.00 64 1011.0
20260505041035 67 302 1.0 5.0 0.00 0.00 0.00 64 1010.9
20260505040535 67 335 1.0 6.0 0.00 0.00 0.00 63 1010.8
20260505040049 68 235 2.0 6.0 0.00 0.00 0.00 63 1010.8
20260505035535 68 346 2.0 4.0 0.00 0.00 0.00 64 1010.7
20260505035037 69 272 1.0 3.0 0.00 0.00 0.00 67 1010.4
20260505034549 69 252 1.0 2.0 0.00 0.00 0.00 66 1010.3
20260505034035 69 269 0.0 2.0 0.00 0.00 0.00 66 1010.3
20260505033535 69 11 1.0 6.0 0.00 0.00 0.00 66 1010.2
20260505033047 69 213 2.0 6.0 0.00 0.00 0.00 66 1010.1
20260505032535 69 180 2.0 5.0 0.00 0.00 0.00 66 1010.0
20260505032036 70 0 0.0 5.0 0.00 0.00 0.00 65 1009.9
20260505031545 70 191 2.0 5.0 0.00 0.00 0.00 65 1009.9
20260505031035 70 154 1.0 6.0 0.00 0.00 0.00 64 1009.8
20260505030536 70 171 2.0 6.0 0.00 0.00 0.00 64 1009.8
20260505030056 71 0 2.0 5.0 0.00 0.00 0.00 63 1009.8
20260505025538 71 163 2.0 6.0 0.00 0.00 0.00 63 1009.7
20260505025036 71 0 2.0 6.0 0.00 0.00 0.00 63 1009.7
20260505024542 72 148 0.0 5.0 0.00 0.00 0.00 63 1009.7
20260505024035 72 196 0.0 6.0 0.00 0.00 0.00 62 1009.5
20260505023535 72 211 2.0 6.0 0.00 0.00 0.00 62 1009.5
20260505023041 72 167 1.0 4.0 0.00 0.00 0.00 61 1009.5
20260505022535 72 240 1.0 5.0 0.00 0.00 0.00 62 1009.6
20260505022035 72 195 1.0 5.0 0.00 0.00 0.00 61 1009.5
20260505021553 72 121 1.0 5.0 0.00 0.00 0.00 60 1009.6
20260505021034 73 150 1.0 7.0 0.00 0.00 0.00 60 1009.6
20260505020535 73 139 3.0 7.0 0.00 0.00 0.00 59 1009.6
20260505020053 73 140 1.0 7.0 0.00 0.00 0.00 58 1009.5
20260505015535 74 184 2.0 7.0 0.00 0.00 0.00 58 1009.5
20260505015036 74 124 4.0 7.0 0.00 0.00 0.00 58 1009.6
20260505014545 74 225 2.0 9.0 0.00 0.00 0.00 57 1009.5
20260505014035 74 98 1.0 9.0 0.00 0.00 0.00 57 1009.5
20260505013538 74 135 4.0 9.0 0.00 0.00 0.00 56 1009.6
20260505013043 75 145 2.0 5.0 0.00 0.00 0.00 56 1009.6
20260505012535 76 168 1.0 8.0 0.00 0.00 0.00 56 1009.5
20260505012035 75 298 2.0 8.0 0.00 0.00 0.00 57 1009.6
20260505011540 75 166 1.0 6.0 0.00 0.00 0.00 56 1009.7
20260505011034 75 198 3.0 6.0 0.00 0.00 0.00 54 1009.8
20260505010537 75 171 2.0 10.0 0.00 0.00 0.00 56 1009.7
20260505010106 75 149 3.0 10.0 0.00 0.00 0.00 55 1009.7
20260505005535 76 122 3.0 9.0 0.00 0.00 0.00 54 1009.7
20260505005040 76 178 3.0 8.0 0.00 0.00 0.00 53 1009.8
20260505004547 76 171 2.0 8.0 0.00 0.00 0.00 54 1009.8
20260505004036 76 218 2.0 6.0 0.00 0.00 0.00 55 1009.8
20260505003535 75 111 2.0 6.0 0.00 0.00 0.00 54 1009.8
20260505003050 76 187 2.0 9.0 0.00 0.00 0.00 54 1009.8
20260505002537 76 247 3.0 9.0 0.00 0.00 0.00 53 1009.9
20260505002035 76 250 2.0 7.0 0.00 0.00 0.00 55 1009.8
20260505001546 77 284 3.0 9.0 0.00 0.00 0.00 52 1009.8
20260505001035 76 169 1.0 10.0 0.00 0.00 0.00 53 1009.8
20260505000535 76 167 2.0 10.0 0.00 0.00 0.00 53 1010.0
20260505000052 77 210 2.0 8.0 0.00 0.00 0.00 52 1010.0
20260504235538 77 160 2.0 8.0 0.00 0.00 0.00 52 1010.0
20260504235035 76 135 2.0 6.0 0.00 0.00 0.00 53 1010.0
20260504234540 76 157 2.0 8.0 0.00 0.00 0.00 52 1010.0
20260504234034 76 271 4.0 8.0 0.00 0.00 0.00 54 1010.0
20260504233538 76 126 1.0 7.0 0.00 0.00 0.00 51 1010.0
20260504233052 75 168 1.0 7.0 0.00 0.00 0.00 52 1010.0
20260504232535 76 228 3.0 7.0 0.00 0.00 0.00 53 1010.2
20260504232035 76 204 2.0 7.0 0.00 0.00 0.00 52 1010.1
20260504231547 75 212 1.0 7.0 0.00 0.00 0.00 52 1010.3
20260504231038 76 0 2.0 7.0 0.00 0.00 0.00 54 1010.3
20260504230537 76 242 1.0 8.0 0.00 0.00 0.00 52 1010.3
20260504230107 75 306 3.0 9.0 0.00 0.00 0.00 51 1010.4
20260504225540 75 104 4.0 9.0 0.00 0.00 0.00 52 1010.6
20260504225036 75 283 1.0 6.0 0.00 0.00 0.00 52 1010.7
20260504224558 75 204 2.0 6.0 0.00 0.00 0.00 51 1010.7
20260504224036 75 126 2.0 8.0 0.00 0.00 0.00 51 1010.8
20260504223536 75 243 1.0 9.0 0.00 0.00 0.00 51 1010.7
20260504223044 75 245 3.0 9.0 0.00 0.00 0.00 51 1010.9
20260504222535 75 294 1.0 6.0 0.00 0.00 0.00 52 1010.8
20260504222034 73 236 1.0 6.0 0.00 0.00 0.00 51 1011.0
20260504221540 74 270 1.0 6.0 0.00 0.00 0.00 51 1011.1
20260504221035 73 146 2.0 6.0 0.00 0.00 0.00 56 1011.2
20260504220540 73 311 2.0 7.0 0.00 0.00 0.00 53 1011.2
20260504220057 74 153 2.0 7.0 0.00 0.00 0.00 53 1011.3
20260504215538 72 292 2.0 7.0 0.00 0.00 0.00 55 1011.3
20260504215035 72 153 3.0 7.0 0.00 0.00 0.00 53 1011.4
20260504214546 73 176 2.0 6.0 0.00 0.00 0.00 53 1011.4
20260504214035 73 113 1.0 7.0 0.00 0.00 0.00 56 1011.4
20260504213538 72 124 2.0 7.0 0.00 0.00 0.00 57 1011.5
20260504213047 71 159 3.0 7.0 0.00 0.00 0.00 55 1011.6
20260504212535 71 329 2.0 8.0 0.00 0.00 0.00 57 1011.6
20260504212035 71 89 2.0 8.0 0.00 0.00 0.00 58 1011.7
20260504211554 69 115 3.0 7.0 0.00 0.00 0.00 58 1011.7
20260504211035 71 131 3.0 7.0 0.00 0.00 0.00 58 1011.9
20260504210535 70 195 2.0 7.0 0.00 0.00 0.00 56 1012.0
20260504210055 70 252 3.0 7.0 0.00 0.00 0.00 58 1012.0
20260504205534 69 242 3.0 10.0 0.00 0.00 0.00 60 1012.1
20260504205034 70 157 2.0 10.0 0.00 0.00 0.00 57 1012.4
20260504204550 69 109 4.0 9.0 0.00 0.00 0.00 58 1012.3
20260504204034 69 254 3.0 9.0 0.00 0.00 0.00 60 1012.4
20260504203534 68 107 2.0 6.0 0.00 0.00 0.00 59 1012.4
20260504203049 68 230 2.0 7.0 0.00 0.00 0.00 60 1012.5
20260504202534 68 186 2.0 9.0 0.00 0.00 0.00 60 1012.6
20260504202034 67 319 4.0 9.0 0.00 0.00 0.00 61 1012.5
20260504201549 67 165 2.0 7.0 0.00 0.00 0.00 64 1012.6
20260504201033 67 302 4.0 8.0 0.00 0.00 0.00 61 1012.6
20260504200535 67 138 3.0 8.0 0.00 0.00 0.00 61 1012.8
20260504200059 67 121 3.0 9.0 0.00 0.00 0.00 63 1012.8
20260504195534 66 141 3.0 9.0 0.00 0.00 0.00 63 1012.8
20260504195034 66 224 2.0 8.0 0.00 0.00 0.00 65 1012.9
20260504194545 66 280 3.0 8.0 0.00 0.00 0.00 64 1012.8
20260504194034 66 116 2.0 7.0 0.00 0.00 0.00 65 1012.9
20260504193534 66 138 3.0 7.0 0.00 0.00 0.00 64 1012.9
20260504193045 66 103 1.0 7.0 0.00 0.00 0.00 64 1012.9
20260504192535 66 132 2.0 7.0 0.00 0.00 0.00 64 1013.0
20260504192034 64 140 2.0 8.0 0.00 0.00 0.00 66 1013.0
20260504191605 65 150 2.0 8.0 0.00 0.00 0.00 65 1013.0
20260504191034 65 194 2.0 7.0 0.00 0.00 0.00 68 1013.1
20260504190534 64 197 2.0 7.0 0.00 0.00 0.00 65 1013.0
20260504190045 64 160 2.0 13.0 0.00 0.00 0.00 68 1013.1
20260504185533 64 286 2.0 13.0 0.00 0.00 0.00 66 1013.2
20260504185033 63 122 4.0 13.0 0.00 0.00 0.00 68 1013.3
20260504184549 63 160 2.0 7.0 0.00 0.00 0.00 68 1013.3
20260504184037 62 129 2.0 8.0 0.00 0.00 0.00 70 1013.4
20260504183535 62 237 2.0 8.0 0.00 0.00 0.00 70 1013.4
20260504183046 61 107 3.0 8.0 0.00 0.00 0.00 70 1013.3
20260504182534 61 134 2.0 5.0 0.00 0.00 0.00 70 1013.3
20260504182034 61 263 1.0 6.0 0.00 0.00 0.00 72 1013.3
20260504181546 60 253 1.0 9.0 0.00 0.00 0.00 74 1013.2
20260504181035 60 167 3.0 9.0 0.00 0.00 0.00 72 1013.3
20260504180535 60 161 2.0 7.0 0.00 0.00 0.00 73 1013.3
20260504180044 60 157 3.0 7.0 0.00 0.00 0.00 74 1013.4
20260504175534 60 199 1.0 8.0 0.00 0.00 0.00 75 1013.2
20260504175034 59 219 2.0 8.0 0.00 0.00 0.00 74 1013.2
20260504174540 59 295 2.0 8.0 0.00 0.00 0.00 75 1013.3
20260504174035 59 222 2.0 5.0 0.00 0.00 0.00 75 1013.4
20260504173534 59 113 1.0 7.0 0.00 0.00 0.00 75 1013.3
20260504173047 59 149 2.0 7.0 0.00 0.00 0.00 75 1013.2
20260504172534 59 187 2.0 7.0 0.00 0.00 0.00 74 1013.3
20260504172034 59 107 4.0 7.0 0.00 0.00 0.00 75 1013.3
20260504171538 59 213 2.0 6.0 0.00 0.00 0.00 75 1013.2
20260504171035 59 271 1.0 5.0 0.00 0.00 0.00 75 1013.2
20260504170535 58 144 1.0 8.0 0.00 0.00 0.00 77 1013.2
20260504151035 56 173 5.0 10.0 0.00 0.00 0.00 78 1012.7
20260504150534 57 186 2.0 8.0 0.00 0.00 0.00 79 1012.6
20260504141034 55 163 1.0 8.0 0.00 0.00 0.00 82 1011.9
20260504140534 55 192 3.0 8.0 0.00 0.00 0.00 82 1011.9